GW6363 Weather Reports


Display with metric or nautical units.
time (UTC)temp
F
wind
direction
speed
MPH
gust
MPH
rain 1hr
in
rain 24hr
in
rain mn
in
humidity
%
barometer
mb
20260503211810 69 93 2.0 9.0 0.00 0.00 0.00 31 1018.0
20260503211307 69 118 3.0 4.0 0.00 0.00 0.00 33 1018.0
20260503210807 69 29 2.0 6.0 0.00 0.00 0.00 34 1017.9
20260503210305 68 76 0.0 5.0 0.00 0.00 0.00 34 1018.1
20260503205800 69 34 2.0 8.0 0.00 0.00 0.00 32 1018.3
20260503205256 69 358 1.0 5.0 0.00 0.00 0.00 36 1018.3
20260503204753 68 86 3.0 4.0 0.00 0.00 0.00 37 1018.3
20260503204251 68 80 4.0 4.0 0.00 0.00 0.00 34 1018.4
20260503203748 68 51 1.0 3.0 0.00 0.00 0.00 31 1018.4
20260503203245 68 111 4.0 6.0 0.00 0.00 0.00 32 1018.6
20260503202742 68 97 3.0 5.0 0.00 0.00 0.00 33 1018.4
20260503202240 68 80 2.0 4.0 0.00 0.00 0.00 36 1018.9
20260503201738 67 71 4.0 6.0 0.00 0.00 0.00 36 1018.8
20260503201235 68 81 4.0 4.0 0.00 0.00 0.00 36 1019.1
20260503200732 67 157 2.0 6.0 0.00 0.00 0.00 36 1019.1
20260503200228 67 327 2.0 5.0 0.00 0.00 0.00 35 1019.1
20260503195724 67 56 5.0 6.0 0.00 0.00 0.00 35 1019.3
20260503195222 66 92 3.0 4.0 0.00 0.00 0.00 37 1019.3
20260503194719 66 19 0.0 7.0 0.00 0.00 0.00 34 1019.3
20260503194215 68 104 0.0 6.0 0.00 0.00 0.00 37 1019.4
20260503193711 66 55 3.0 5.0 0.00 0.00 0.00 39 1019.6
20260503193207 65 18 1.0 4.0 0.00 0.00 0.00 36 1019.4
20260503192703 65 87 4.0 8.0 0.00 0.00 0.00 36 1019.8
20260503192158 67 102 4.0 9.0 0.00 0.00 0.00 33 1019.8
20260503191655 66 29 2.0 4.0 0.00 0.00 0.00 41 1019.8
20260503191152 66 68 3.0 6.0 0.00 0.00 0.00 34 1020.0
20260503190649 66 89 0.0 8.0 0.00 0.00 0.00 36 1019.9
20260503190146 66 263 1.0 3.0 0.00 0.00 0.00 43 1020.1
20260503185642 65 96 4.0 6.0 0.00 0.00 0.00 35 1020.2
20260503185138 66 54 3.0 4.0 0.00 0.00 0.00 41 1019.9
20260503184633 66 48 2.0 3.0 0.00 0.00 0.00 44 1020.3
20260503184130 65 341 2.0 4.0 0.00 0.00 0.00 38 1020.1
20260503183626 66 86 2.0 10.0 0.00 0.00 0.00 34 1020.1
20260503183124 64 23 4.0 4.0 0.00 0.00 0.00 42 1020.3
20260503182622 64 115 1.0 4.0 0.00 0.00 0.00 35 1020.2
20260503182120 64 66 3.0 4.0 0.00 0.00 0.00 35 1020.4
20260503181617 64 97 9.0 11.0 0.00 0.00 0.00 36 1020.6
20260503181113 63 86 4.0 5.0 0.00 0.00 0.00 39 1020.5
20260503180610 62 51 3.0 7.0 0.00 0.00 0.00 35 1020.5
20260503180108 63 321 0.0 4.0 0.00 0.00 0.00 42 1020.5
20260503175605 63 288 1.0 5.0 0.00 0.00 0.00 39 1020.9
20260503175102 63 8 1.0 7.0 0.00 0.00 0.00 36 1020.9
20260503174559 64 102 3.0 4.0 0.00 0.00 0.00 37 1020.7
20260503174055 63 279 0.0 3.0 0.00 0.00 0.00 45 1020.9
20260503173550 62 272 2.0 3.0 0.00 0.00 0.00 40 1020.8
20260503173047 63 359 0.0 3.0 0.00 0.00 0.00 36 1020.9
20260503172544 63 79 3.0 4.0 0.00 0.00 0.00 41 1021.0
20260503172042 62 37 2.0 6.0 0.00 0.00 0.00 38 1021.0
20260503171538 61 313 2.0 4.0 0.00 0.00 0.00 46 1021.0
20260503171036 62 259 2.0 4.0 0.00 0.00 0.00 40 1021.3
20260503170532 62 86 7.0 7.0 0.00 0.00 0.00 42 1021.3
20260503150924 58 111 4.0 5.0 0.00 0.00 0.00 42 1022.2
20260503150421 57 76 2.0 4.0 0.00 0.00 0.00 42 1022.3
20260503131314 49 85 2.0 2.0 0.00 0.00 0.00 68 1022.2
20260503130812 49 82 2.0 2.0 0.00 0.00 0.00 68 1022.2
20260503130309 48 89 0.0 3.0 0.00 0.00 0.00 67 1022.3
20260503110702 40 87 1.0 3.0 0.00 0.00 0.00 88 1021.0
20260503110200 40 96 2.0 2.0 0.00 0.00 0.00 88 1020.9
20260503100126 41 63 2.0 2.0 0.00 0.00 0.00 86 1020.3
20260503081516 44 80 1.0 2.0 0.00 0.00 0.00 77 1019.7
20260503081013 44 81 2.0 2.0 0.00 0.00 0.00 78 1019.5
20260503080509 44 85 2.0 2.0 0.00 0.00 0.00 78 1019.4
20260503072443 45 84 2.0 3.0 0.00 0.00 0.00 77 1019.3
20260503071939 45 56 2.0 2.0 0.00 0.00 0.00 76 1019.1
20260503071436 45 78 2.0 2.0 0.00 0.00 0.00 76 1019.1
20260503070932 46 74 1.0 2.0 0.00 0.00 0.00 75 1019.2
20260503070430 46 66 2.0 2.0 0.00 0.00 0.00 74 1019.1
20260503054843 51 69 1.0 2.0 0.00 0.00 0.00 64 1018.9
20260503054339 51 72 4.0 4.0 0.00 0.00 0.00 63 1018.9
20260503053837 51 55 1.0 2.0 0.00 0.00 0.00 63 1018.6
20260503053335 51 74 2.0 3.0 0.00 0.00 0.00 64 1018.6
20260503052831 51 75 2.0 3.0 0.00 0.00 0.00 63 1018.4
20260503052328 51 55 0.0 2.0 0.00 0.00 0.00 63 1018.5
20260503051824 51 61 2.0 3.0 0.00 0.00 0.00 62 1018.5
20260503051321 51 71 0.0 2.0 0.00 0.00 0.00 63 1018.6
20260503050818 51 69 2.0 2.0 0.00 0.00 0.00 62 1018.6
20260503050314 51 78 1.0 3.0 0.00 0.00 0.00 62 1018.9
20260503045812 51 56 2.0 3.0 0.00 0.00 0.00 63 1018.9
20260503045309 51 50 1.0 2.0 0.00 0.00 0.00 63 1018.6
20260503044805 51 67 0.0 3.0 0.00 0.00 0.00 62 1018.8
20260503044302 51 41 2.0 2.0 0.00 0.00 0.00 61 1018.8
20260503043800 51 40 0.0 3.0 0.00 0.00 0.00 63 1018.5
20260503043256 51 76 1.0 2.0 0.00 0.00 0.00 62 1018.5
20260503042752 51 68 1.0 3.0 0.00 0.00 0.00 61 1018.6
20260503042249 51 59 1.0 3.0 0.00 0.00 0.00 61 1018.4
20260503041745 52 71 3.0 3.0 0.00 0.00 0.00 60 1018.2
20260503041243 52 55 2.0 2.0 0.00 0.00 0.00 59 1018.3
20260503040741 52 76 0.0 3.0 0.00 0.00 0.00 60 1018.3
20260503040238 52 76 1.0 1.0 0.00 0.00 0.00 61 1018.2
20260503035735 53 52 0.0 2.0 0.00 0.00 0.00 58 1018.3
20260503035232 53 74 0.0 2.0 0.00 0.00 0.00 58 1018.3
20260503034729 53 84 3.0 3.0 0.00 0.00 0.00 58 1018.2
20260503034226 53 80 0.0 4.0 0.00 0.00 0.00 58 1018.4
20260503033724 53 96 0.0 3.0 0.00 0.00 0.00 58 1018.3
20260503033221 53 97 0.0 2.0 0.00 0.00 0.00 58 1018.1
20260503032719 53 54 2.0 6.0 0.00 0.00 0.00 57 1018.2
20260503032218 53 58 1.0 2.0 0.00 0.00 0.00 57 1018.0
20260503031714 53 67 0.0 4.0 0.00 0.00 0.00 58 1018.2
20260503031213 53 48 4.0 4.0 0.00 0.00 0.00 58 1018.0
20260503030708 53 44 0.0 3.0 0.00 0.00 0.00 57 1017.9
20260503030205 53 107 0.0 3.0 0.00 0.00 0.00 56 1018.0
20260503025702 53 69 0.0 5.0 0.00 0.00 0.00 57 1017.8
20260503025200 53 66 1.0 3.0 0.00 0.00 0.00 56 1017.9
20260503024656 53 38 2.0 2.0 0.00 0.00 0.00 57 1018.0
20260503024154 53 264 1.0 3.0 0.00 0.00 0.00 57 1017.7
20260503023650 53 77 2.0 2.0 0.00 0.00 0.00 58 1017.9
20260503023147 54 57 2.0 2.0 0.00 0.00 0.00 55 1017.9
20260503022643 54 52 2.0 4.0 0.00 0.00 0.00 55 1017.7
20260503022143 54 54 1.0 2.0 0.00 0.00 0.00 56 1017.7
20260503021640 54 89 2.0 3.0 0.00 0.00 0.00 55 1017.6
20260503021136 54 44 2.0 3.0 0.00 0.00 0.00 55 1017.8
20260503020633 54 84 1.0 2.0 0.00 0.00 0.00 55 1017.5
20260503020131 54 45 2.0 2.0 0.00 0.00 0.00 56 1017.5
20260503015628 54 32 0.0 4.0 0.00 0.00 0.00 56 1017.7
20260503015125 54 78 2.0 2.0 0.00 0.00 0.00 56 1017.3
20260503014620 54 75 2.0 2.0 0.00 0.00 0.00 56 1017.1
20260503014118 53 63 1.0 2.0 0.00 0.00 0.00 56 1017.1
20260503013615 54 66 1.0 2.0 0.00 0.00 0.00 57 1017.0
20260503013114 54 83 1.0 3.0 0.00 0.00 0.00 55 1017.1
20260503012611 54 69 1.0 2.0 0.00 0.00 0.00 56 1017.0
20260503012107 54 54 2.0 3.0 0.00 0.00 0.00 57 1016.8
20260503011603 53 91 0.0 3.0 0.00 0.00 0.00 55 1016.7
20260503011101 53 42 3.0 3.0 0.00 0.00 0.00 55 1017.0
20260503010556 53 68 2.0 4.0 0.00 0.00 0.00 56 1016.9
20260503010055 54 65 2.0 4.0 0.00 0.00 0.00 56 1016.8
20260503005551 54 65 2.0 2.0 0.00 0.00 0.00 55 1016.7
20260503005049 54 82 3.0 4.0 0.00 0.00 0.00 54 1016.6
20260503004544 55 53 1.0 3.0 0.00 0.00 0.00 53 1016.6
20260503004043 55 71 2.0 3.0 0.00 0.00 0.00 53 1016.4
20260503003539 55 44 0.0 2.0 0.00 0.00 0.00 52 1016.2
20260503003037 55 87 0.0 2.0 0.00 0.00 0.00 51 1016.3
20260503002533 56 49 0.0 3.0 0.00 0.00 0.00 51 1016.2
20260503002030 56 77 2.0 2.0 0.00 0.00 0.00 48 1016.2
20260503001526 57 52 0.0 4.0 0.00 0.00 0.00 48 1016.0
20260503001024 57 44 0.0 3.0 0.00 0.00 0.00 49 1016.2
20260503000521 57 45 1.0 2.0 0.00 0.00 0.00 46 1016.0
20260503000018 58 53 2.0 3.0 0.00 0.00 0.00 45 1015.9
20260502235515 58 13 0.0 2.0 0.00 0.00 0.00 44 1015.7
20260502235013 59 314 1.0 4.0 0.00 0.00 0.00 43 1015.7
20260502234509 59 37 3.0 5.0 0.00 0.00 0.00 43 1015.7
20260502234006 59 85 2.0 4.0 0.00 0.00 0.00 44 1015.5
20260502233506 59 304 1.0 6.0 0.00 0.00 0.00 44 1015.5
20260502233004 60 96 1.0 2.0 0.00 0.00 0.00 46 1015.5
20260502232500 60 75 2.0 2.0 0.00 0.00 0.00 43 1015.6
20260502231957 60 240 0.0 3.0 0.00 0.00 0.00 44 1015.5
20260502231454 61 92 2.0 2.0 0.00 0.00 0.00 42 1015.7
20260502230952 62 37 1.0 4.0 0.00 0.00 0.00 42 1015.4
20260502230450 62 87 2.0 6.0 0.00 0.00 0.00 40 1015.4
20260502225948 62 51 4.0 4.0 0.00 0.00 0.00 40 1015.4
20260502225443 63 275 2.0 3.0 0.00 0.00 0.00 40 1015.4
20260502224941 64 77 2.0 2.0 0.00 0.00 0.00 42 1015.5
20260502224437 65 81 0.0 3.0 0.00 0.00 0.00 36 1015.4
20260502223934 63 50 1.0 2.0 0.00 0.00 0.00 37 1015.5
20260502223432 64 87 4.0 8.0 0.00 0.00 0.00 35 1015.4
20260502222930 64 255 0.0 9.0 0.00 0.00 0.00 39 1015.1
20260502222427 62 44 0.0 2.0 0.00 0.00 0.00 46 1015.3
20260502221922 61 295 0.0 5.0 0.00 0.00 0.00 41 1015.4
20260502221419 62 267 0.0 4.0 0.00 0.00 0.00 39 1015.1
20260502220916 63 284 1.0 2.0 0.00 0.00 0.00 38 1015.1
20260502220411 65 269 0.0 2.0 0.00 0.00 0.00 37 1015.0
20260502215908 66 315 0.0 3.0 0.00 0.00 0.00 37 1015.0
20260502215406 65 310 2.0 4.0 0.00 0.00 0.00 36 1015.0
20260502214902 65 269 0.0 5.0 0.00 0.00 0.00 38 1014.8
20260502214359 62 80 0.0 3.0 0.00 0.00 0.00 40 1014.9
20260502213856 62 81 2.0 3.0 0.00 0.00 0.00 39 1014.9
20260502213353 62 89 0.0 1.0 0.00 0.00 0.00 41 1014.8
20260502212852 62 294 1.0 2.0 0.00 0.00 0.00 40 1014.9
20260502212350 62 77 0.0 3.0 0.00 0.00 0.00 41 1014.7